Time,TemperatureF,DewpointF,PressureIn,WindDirection,WindDirectionDegrees,WindSpeedMPH,WindSpeedGustMPH,Humidity,HourlyPrecipIn,Conditions,Clouds,dailyrainin,SoftwareType,DateUTC
2013-06-13 00:03:00,64.4,64.0,29.79,SW,225,0.0,0.0,98,0.00,,,0.00,weatherlink.com 1.10,2013-06-13 04:03:00,
2013-06-13 00:18:00,64.3,64.0,29.77,SW,225,0.0,0.0,98,0.00,,,0.00,weatherlink.com 1.10,2013-06-13 04:18:00,
2013-06-13 00:33:00,64.3,64.0,29.75,SW,225,0.0,1.0,98,0.00,,,0.00,weatherlink.com 1.10,2013-06-13 04:33:00,
2013-06-13 00:48:00,64.2,64.0,29.74,SW,225,0.0,0.0,98,0.00,,,0.00,weatherlink.com 1.10,2013-06-13 04:48:00,
2013-06-13 01:03:00,64.0,64.0,29.73,SW,225,0.0,0.0,98,0.00,,,0.00,weatherlink.com 1.10,2013-06-13 05:03:00,
2013-06-13 01:18:00,64.0,64.0,29.72,SW,225,0.0,0.0,98,0.00,,,0.00,weatherlink.com 1.10,2013-06-13 05:18:00,
2013-06-13 01:33:00,63.8,63.0,29.72,SW,225,0.0,0.0,98,0.00,,,0.00,weatherlink.com 1.10,2013-06-13 05:33:00,
2013-06-13 01:48:00,64.0,64.0,29.73,SW,225,0.0,0.0,98,0.00,,,0.00,weatherlink.com 1.10,2013-06-13 05:48:00,
2013-06-13 02:03:00,64.0,64.0,29.72,SW,225,0.0,0.0,98,0.00,,,0.00,weatherlink.com 1.10,2013-06-13 06:03:00,
2013-06-13 02:18:00,63.8,63.0,29.72,SW,225,0.0,0.0,98,0.00,,,0.00,weatherlink.com 1.10,2013-06-13 06:18:00,
2013-06-13 02:33:00,64.0,64.0,29.73,SW,225,0.0,2.0,99,0.00,,,0.00,weatherlink.com 1.10,2013-06-13 06:33:00,
2013-06-13 02:48:00,64.2,64.0,29.74,SW,225,0.0,0.0,99,0.00,,,0.00,weatherlink.com 1.10,2013-06-13 06:48:00,
2013-06-13 03:03:00,64.3,64.0,29.74,SW,225,0.0,0.0,99,0.00,,,0.00,weatherlink.com 1.10,2013-06-13 07:03:00,
2013-06-13 03:18:00,64.3,64.0,29.74,SW,225,0.0,0.0,99,0.00,,,0.00,weatherlink.com 1.10,2013-06-13 07:18:00,
2013-06-13 03:33:00,64.5,64.0,29.74,South,184,0.0,2.0,99,0.00,,,0.00,weatherlink.com 1.10,2013-06-13 07:33:00,
2013-06-13 03:48:00,63.4,63.0,29.75,SW,227,2.0,4.0,99,0.00,,,0.00,weatherlink.com 1.10,2013-06-13 07:48:00,
2013-06-13 04:03:00,61.1,60.0,29.77,ESE,115,0.0,4.0,97,0.00,,,0.00,weatherlink.com 1.10,2013-06-13 08:03:00,
2013-06-13 04:18:00,60.0,60.0,29.77,SSE,164,1.0,3.0,98,0.00,,,0.00,weatherlink.com 1.10,2013-06-13 08:18:00,
2013-06-13 04:33:00,59.6,59.0,29.77,SSE,164,0.0,1.0,98,0.00,,,0.00,weatherlink.com 1.10,2013-06-13 08:33:00,
2013-06-13 04:48:00,59.6,59.0,29.78,SSE,164,0.0,1.0,98,0.00,,,0.00,weatherlink.com 1.10,2013-06-13 08:48:00,
2013-06-13 05:03:00,59.7,59.0,29.78,SSE,164,0.0,0.0,98,0.00,,,0.00,weatherlink.com 1.10,2013-06-13 09:03:00,
2013-06-13 05:18:00,59.5,59.0,29.78,SSE,164,0.0,0.0,98,0.00,,,0.00,weatherlink.com 1.10,2013-06-13 09:18:00,
2013-06-13 05:33:00,59.4,59.0,29.79,SSE,164,0.0,0.0,98,0.00,,,0.00,weatherlink.com 1.10,2013-06-13 09:33:00,
2013-06-13 05:48:00,59.1,59.0,29.80,SSE,164,0.0,0.0,98,0.00,,,0.00,weatherlink.com 1.10,2013-06-13 09:48:00,
2013-06-13 06:03:00,59.0,59.0,29.82,SSE,164,0.0,0.0,98,0.00,,,0.00,weatherlink.com 1.10,2013-06-13 10:03:00,
2013-06-13 06:18:00,58.4,58.0,29.82,SSE,164,0.0,0.0,98,0.00,,,0.00,weatherlink.com 1.10,2013-06-13 10:18:00,
2013-06-13 06:33:00,57.7,57.0,29.83,SSE,164,0.0,0.0,98,0.00,,,0.00,weatherlink.com 1.10,2013-06-13 10:33:00,
2013-06-13 06:48:00,57.6,57.0,29.83,SSE,164,0.0,0.0,98,0.00,,,0.00,weatherlink.com 1.10,2013-06-13 10:48:00,
2013-06-13 07:03:00,57.4,57.0,29.83,SSE,164,0.0,0.0,99,0.00,,,0.00,weatherlink.com 1.10,2013-06-13 11:03:00,
2013-06-13 07:18:00,57.3,57.0,29.84,SSE,164,0.0,0.0,99,0.00,,,0.00,weatherlink.com 1.10,2013-06-13 11:18:00,
2013-06-13 07:33:00,57.2,57.0,29.85,SSE,164,0.0,0.0,98,0.00,,,0.00,weatherlink.com 1.10,2013-06-13 11:33:00,
2013-06-13 07:48:00,57.9,58.0,29.85,SSE,164,0.0,0.0,99,0.00,,,0.00,weatherlink.com 1.10,2013-06-13 11:48:00,
2013-06-13 08:04:00,58.9,59.0,29.86,SSE,164,0.0,0.0,99,0.00,,,0.00,weatherlink.com 1.10,2013-06-13 12:04:00,
2013-06-13 08:19:00,60.4,60.0,29.86,SSE,164,0.0,0.0,99,0.00,,,0.00,weatherlink.com 1.10,2013-06-13 12:19:00,
2013-06-13 08:34:00,61.4,61.0,29.86,SSE,164,0.0,1.0,99,0.00,,,0.00,weatherlink.com 1.10,2013-06-13 12:34:00,
2013-06-13 08:49:00,62.1,62.0,29.87,SSE,164,0.0,1.0,99,0.00,,,0.00,weatherlink.com 1.10,2013-06-13 12:49:00,
2013-06-13 09:04:00,62.3,62.0,29.88,SSE,164,0.0,0.0,99,0.00,,,0.00,weatherlink.com 1.10,2013-06-13 13:04:00,
2013-06-13 09:19:00,62.9,63.0,29.87,SSE,164,0.0,1.0,99,0.00,,,0.00,weatherlink.com 1.10,2013-06-13 13:19:00,
2013-06-13 09:34:00,62.9,63.0,29.87,SSE,164,0.0,1.0,99,0.00,,,0.00,weatherlink.com 1.10,2013-06-13 13:34:00,
2013-06-13 09:49:00,64.0,64.0,29.88,SW,234,1.0,3.0,99,0.00,,,0.00,weatherlink.com 1.10,2013-06-13 13:49:00,
2013-06-13 10:04:00,65.3,65.0,29.89,South,174,0.0,4.0,97,0.00,,,0.00,weatherlink.com 1.10,2013-06-13 14:04:00,
2013-06-13 10:19:00,66.2,62.0,29.89,South,186,2.0,5.0,85,0.00,,,0.00,weatherlink.com 1.10,2013-06-13 14:19:00,
2013-06-13 10:34:00,67.0,61.0,29.89,SSE,167,0.0,5.0,81,0.00,,,0.00,weatherlink.com 1.10,2013-06-13 14:34:00,
2013-06-13 10:49:00,68.4,64.0,29.89,South,180,2.0,4.0,87,0.00,,,0.00,weatherlink.com 1.10,2013-06-13 14:49:00,
2013-06-13 11:04:00,70.3,65.0,29.89,SSW,199,1.0,3.0,83,0.00,,,0.00,weatherlink.com 1.10,2013-06-13 15:04:00,
2013-06-13 11:19:00,71.2,62.0,29.90,SSE,149,3.0,4.0,73,0.00,,,0.00,weatherlink.com 1.10,2013-06-13 15:19:00,
2013-06-13 11:34:00,71.9,63.0,29.90,West,280,0.0,4.0,73,0.00,,,0.00,weatherlink.com 1.10,2013-06-13 15:34:00,
2013-06-13 11:49:00,73.5,64.0,29.90,South,190,2.0,4.0,71,0.00,,,0.00,weatherlink.com 1.10,2013-06-13 15:49:00,
2013-06-13 12:04:00,73.8,64.0,29.91,South,174,1.0,2.0,72,0.00,,,0.00,weatherlink.com 1.10,2013-06-13 16:04:00,
2013-06-13 12:19:00,74.7,66.0,29.91,WNW,286,2.0,3.0,75,0.00,,,0.00,weatherlink.com 1.10,2013-06-13 16:19:00,
2013-06-13 12:34:00,74.6,65.0,29.91,SSE,155,1.0,3.0,72,0.00,,,0.00,weatherlink.com 1.10,2013-06-13 16:34:00,
2013-06-13 12:49:00,75.6,63.0,29.91,South,188,1.0,6.0,64,0.00,,,0.00,weatherlink.com 1.10,2013-06-13 16:49:00,
2013-06-13 13:04:00,76.2,63.0,29.91,SSW,205,0.0,4.0,64,0.00,,,0.00,weatherlink.com 1.10,2013-06-13 17:04:00,
2013-06-13 13:19:00,75.9,61.0,29.92,South,172,2.0,4.0,60,0.00,,,0.00,weatherlink.com 1.10,2013-06-13 17:19:00,
2013-06-13 13:34:00,76.2,62.0,29.92,SSW,201,3.0,4.0,61,0.00,,,0.00,weatherlink.com 1.10,2013-06-13 17:34:00,
2013-06-13 13:49:00,76.5,63.0,29.92,South,182,1.0,4.0,64,0.00,,,0.00,weatherlink.com 1.10,2013-06-13 17:49:00,
2013-06-13 14:04:00,75.6,61.0,29.92,SW,220,0.0,4.0,61,0.00,,,0.00,weatherlink.com 1.10,2013-06-13 18:04:00,
2013-06-13 14:19:00,76.2,64.0,29.93,SSW,207,1.0,3.0,66,0.00,,,0.00,weatherlink.com 1.10,2013-06-13 18:19:00,
2013-06-13 14:34:00,75.6,63.0,29.93,SE,132,2.0,4.0,66,0.00,,,0.00,weatherlink.com 1.10,2013-06-13 18:34:00,
2013-06-13 14:49:00,73.0,64.0,29.93,SE,134,0.0,4.0,73,0.00,,,0.00,weatherlink.com 1.10,2013-06-13 18:49:00,
2013-06-13 15:04:00,77.2,64.0,29.93,South,171,2.0,4.0,63,0.00,,,0.00,weatherlink.com 1.10,2013-06-13 19:04:00,
2013-06-13 15:19:00,73.5,64.0,29.93,SW,234,1.0,2.0,72,0.00,,,0.00,weatherlink.com 1.10,2013-06-13 19:19:00,
2013-06-13 15:34:00,73.0,65.0,29.94,SE,133,1.0,3.0,77,0.00,,,0.00,weatherlink.com 1.10,2013-06-13 19:34:00,
2013-06-13 15:49:00,77.4,62.0,29.94,SE,131,0.0,4.0,60,0.00,,,0.00,weatherlink.com 1.10,2013-06-13 19:49:00,
2013-06-13 16:04:00,77.1,64.0,29.94,SW,232,1.0,5.0,64,0.00,,,0.00,weatherlink.com 1.10,2013-06-13 20:04:00,
2013-06-13 16:20:00,75.3,63.0,29.94,ESE,109,2.0,6.0,65,0.00,,,0.00,weatherlink.com 1.10,2013-06-13 20:20:00,
2013-06-13 16:35:00,74.7,63.0,29.95,South,188,1.0,7.0,68,0.00,,,0.00,weatherlink.com 1.10,2013-06-13 20:35:00,
2013-06-13 16:50:00,75.4,64.0,29.95,SW,225,2.0,4.0,67,0.00,,,0.00,weatherlink.com 1.10,2013-06-13 20:50:00,
2013-06-13 17:05:00,76.2,65.0,29.95,SW,218,3.0,5.0,69,0.00,,,0.00,weatherlink.com 1.10,2013-06-13 21:05:00,
2013-06-13 17:20:00,75.3,65.0,29.95,West,277,2.0,4.0,70,0.00,,,0.00,weatherlink.com 1.10,2013-06-13 21:20:00,
2013-06-13 17:35:00,75.9,65.0,29.96,SW,222,2.0,4.0,68,0.00,,,0.00,weatherlink.com 1.10,2013-06-13 21:35:00,
2013-06-13 17:50:00,75.1,66.0,29.96,NNW,348,1.0,4.0,73,0.00,,,0.00,weatherlink.com 1.10,2013-06-13 21:50:00,
2013-06-13 18:05:00,74.6,64.0,29.96,SE,138,0.0,4.0,69,0.00,,,0.00,weatherlink.com 1.10,2013-06-13 22:05:00,
2013-06-13 18:20:00,73.8,63.0,29.97,ESE,105,0.0,6.0,69,0.00,,,0.00,weatherlink.com 1.10,2013-06-13 22:20:00,
2013-06-13 18:35:00,73.0,63.0,29.97,South,186,2.0,6.0,71,0.00,,,0.00,weatherlink.com 1.10,2013-06-13 22:35:00,
2013-06-13 18:50:00,72.4,61.0,29.97,NNE,22,0.0,3.0,67,0.00,,,0.00,weatherlink.com 1.10,2013-06-13 22:50:00,
2013-06-13 19:05:00,72.4,61.0,29.98,SSE,168,1.0,3.0,68,0.00,,,0.00,weatherlink.com 1.10,2013-06-13 23:05:00,
2013-06-13 19:20:00,71.1,62.0,29.98,South,182,0.0,3.0,74,0.00,,,0.00,weatherlink.com 1.10,2013-06-13 23:20:00,
2013-06-13 19:35:00,69.7,61.0,29.99,SSW,212,0.0,3.0,74,0.00,,,0.00,weatherlink.com 1.10,2013-06-13 23:35:00,
2013-06-13 19:50:00,68.7,62.0,29.99,SSW,195,1.0,1.0,78,0.00,,,0.00,weatherlink.com 1.10,2013-06-13 23:50:00,
2013-06-13 20:05:00,67.7,62.0,30.00,SE,126,0.0,2.0,81,0.00,,,0.00,weatherlink.com 1.10,2013-06-14 00:05:00,
2013-06-13 20:20:00,66.7,61.0,30.00,South,188,0.0,2.0,81,0.00,,,0.00,weatherlink.com 1.10,2013-06-14 00:20:00,
2013-06-13 20:35:00,66.2,61.0,30.01,South,188,0.0,1.0,84,0.00,,,0.00,weatherlink.com 1.10,2013-06-14 00:35:00,
2013-06-13 20:50:00,65.0,60.0,30.01,South,188,0.0,1.0,84,0.00,,,0.00,weatherlink.com 1.10,2013-06-14 00:50:00,
2013-06-13 21:05:00,64.3,60.0,30.01,South,188,0.0,1.0,85,0.00,,,0.00,weatherlink.com 1.10,2013-06-14 01:05:00,
2013-06-13 21:20:00,63.0,59.0,30.01,South,188,0.0,1.0,87,0.00,,,0.00,weatherlink.com 1.10,2013-06-14 01:20:00,
2013-06-13 21:35:00,62.2,59.0,30.01,South,188,0.0,2.0,88,0.00,,,0.00,weatherlink.com 1.10,2013-06-14 01:35:00,
2013-06-13 21:50:00,61.7,58.0,30.02,ESE,115,0.0,1.0,87,0.00,,,0.00,weatherlink.com 1.10,2013-06-14 01:50:00,
2013-06-13 22:05:00,61.1,58.0,30.03,SSE,165,1.0,2.0,89,0.00,,,0.00,weatherlink.com 1.10,2013-06-14 02:05:00,
2013-06-13 22:20:00,61.0,58.0,30.04,SE,140,0.0,3.0,89,0.00,,,0.00,weatherlink.com 1.10,2013-06-14 02:20:00,
2013-06-13 22:35:00,60.1,57.0,30.04,SE,140,0.0,0.0,90,0.00,,,0.00,weatherlink.com 1.10,2013-06-14 02:35:00,
2013-06-13 22:50:00,58.9,56.0,30.05,SE,140,0.0,0.0,91,0.00,,,0.00,weatherlink.com 1.10,2013-06-14 02:50:00,
2013-06-13 23:05:00,58.2,56.0,30.05,SE,140,0.0,0.0,93,0.00,,,0.00,weatherlink.com 1.10,2013-06-14 03:05:00,
2013-06-13 23:20:00,57.6,56.0,30.06,SE,140,0.0,0.0,93,0.00,,,0.00,weatherlink.com 1.10,2013-06-14 03:20:00,
2013-06-13 23:35:00,57.4,56.0,30.06,SE,140,0.0,2.0,94,0.00,,,0.00,weatherlink.com 1.10,2013-06-14 03:35:00,
2013-06-13 23:50:00,57.2,56.0,30.06,SE,140,0.0,1.0,94,0.00,,,0.00,weatherlink.com 1.10,2013-06-14 03:50:00,